Location: Bakersfield
(35.3730°N, 119.0180°W)
Time: 16:45:16
(UTC-08:00)

Daily predictions for brighter satellites

Satellite Brightness Start Highest point End
(mag) Time Altitude Azimuth Time Altitude Azimuth Time Altitude Azimuth
Cosmos 2341 Rocket 4.2 17:00:57 10° N 17:07:11 82° W 17:13:23 10° S
Cosmos 2082 Rocket 3.9 17:08:35 10° NNE 17:10:44 12° NE 17:12:52 10° ENE
Cosmos 1833 Rocket 4.5 17:11:23 10° NE 17:12:05 10° NE 17:12:46 10° ENE
Cosmos 1544 Rocket 3.8 17:11:11 10° N 17:15:32 50° E 17:19:51 10° SSE
Cosmos 1975 Rocket 3.8 17:11:48 10° SSW 17:16:01 55° W 17:20:16 10° N
COSMO-SKYMED 1 3.7 17:13:47 10° NE 17:17:21 25° E 17:20:54 10° SSE
CZ-3B DEB 2.1 17:18:41 10° WSW 17:21:45 58° NW 17:29:15 10° NE
Tiangong 1 1.4 17:23:30 10° SW 17:26:28 51° SSE 17:28:54 14° ENE
Hubble Space Telescope 3.7 17:26:31 10° SW 17:28:18 12° SSW 17:30:05 10° S
PAYLOAD A 4.4 17:24:36 10° S 17:29:19 64° W 17:34:13 10° NNW
Cosmos 1536 Rocket 3.6 17:28:11 10° S 17:32:35 63° E 17:37:01 10° NNE
SJ-7 4.4 17:28:54 10° SSE 17:33:06 77° ENE 17:37:21 10° N
Cosmos 864 Rocket 4.5 17:28:43 10° N 17:34:59 67° E 17:41:15 10° SSE
Okean 1 3.3 17:32:51 10° S 17:36:50 61° E 17:40:51 10° NNE
Cosmos 1812 2.8 17:36:16 10° S 17:40:07 79° W 17:44:00 10° N
YAOGAN 1 2.7 17:36:16 10° S 17:40:34 82° WSW 17:44:55 10° NNW
CZ-4 R/B 4.3 17:39:38 10° SSE 17:43:46 80° ENE 17:47:56 10° N
SPOT 3 Rocket 3.9 17:39:12 10° S 17:44:22 71° WSW 17:49:33 10° NNW
ISS -0.6 17:44:25 10° NW 17:45:20 11° NNW 17:46:16 10° N
COSMOS 2487 3.6 17:43:12 10° NNE 17:46:06 22° ENE 17:47:27 18° E
Cosmos 921 Rocket 3.7 17:45:36 10° SSE 17:49:19 31° E 17:51:26 20° NE
Cosmos 1346 Rocket 2.7 17:48:40 10° S 17:52:32 62° E 17:56:23 10° NNE
Cosmos 1844 Rocket 4.4 17:48:37 10° WSW 17:53:28 30° WNW 17:58:22 10° N
Cosmos 1455 Rocket 3.9 18:00:37 10° NNW 18:04:55 53° W 18:09:13 10° S
IDEFIX/ARIANE 42P 3.7 18:00:18 10° S 18:05:16 45° W 18:10:15 10° NNW
SKYMED 2 3.5 18:01:12 10° NNE 18:05:34 87° W 18:09:53 10° SSW
Okean 1-7 Rocket 3.7 18:02:08 10° S 18:06:31 52° E 18:09:43 18° NNE
Cosmos 375 4.4 18:03:03 10° NNW 18:07:11 49° NE 18:08:56 28° ESE
Cosmos 494 Rocket 4.4 18:04:01 10° NNW 18:09:14 66° WSW 18:14:26 10° S
FALCON 9 R/B 3.8 17:42:19 10° WSW 18:10:50 80° S 18:15:38 26° E
OTV 4 2.7 18:10:01 10° W 18:12:26 22° SSW 18:14:23 13° SSE
Cosmos 2297 3.6 18:07:04 10° SSW 18:12:42 79° ESE 18:17:03 18° NNE
CZ-4 R/B 4.2 18:09:49 10° SW 18:13:02 21° W 18:16:14 10° NW
Delta 2 Rocket 3.4 18:10:01 10° WSW 18:13:49 65° SSE 18:15:08 40° E
Cosmos 1975 3.9 18:20:43 10° NNW 18:24:36 45° W 18:28:26 10° SSW
ATLAS 2AS CENTAUR R/B 3.5 18:16:56 10° NW 18:24:45 61° WSW 18:31:58 10° SSE
Cosmos 2278 Rocket 3.6 18:21:51 10° SW 18:27:00 36° WNW 18:32:12 10° N
Cosmos 1535 Rocket 4.4 18:25:05 10° N 18:31:20 62° E 18:37:26 10° SSE
Intercosmos 25 3.7 18:32:28 43° S 18:32:28 43° S 18:34:55 10° S
Cosmos 1934 Rocket 4.1 18:25:48 10° N 18:31:47 48° E 18:37:48 10° SSE
Genesis I 3.3 18:30:10 10° NNW 18:33:34 63° N 18:33:34 63° N
Meteor 1-19 Rocket 4.3 18:31:46 10° S 18:37:32 83° W 18:43:21 10° N
Cosmos 1484 Rocket 4.4 18:34:32 10° SSW 18:37:58 34° W 18:41:24 10° NNW
Timation 2 Rocket 4.1 18:35:50 10° NNW 18:42:44 80° ENE 18:49:36 10° SSE
Cosmos 1743 3.4 18:44:53 48° SSW 18:44:53 48° SSW 18:47:46 10° S
NOAA 12 4.0 18:40:19 10° SSE 18:45:36 87° WSW 18:50:54 10° NNW
Cosmos 2239 Rocket 4.3 18:41:24 10° N 18:47:37 86° E 18:53:46 10° S
ATLAS 3B CENTAUR R/B 3.6 18:32:43 10° W 18:50:23 57° S 18:53:29 36° SE
METEOR-M 4.0 18:48:55 10° SSE 18:54:15 86° WSW 18:59:37 10° NNW
Cosmos 2082 Rocket 2.1 18:49:53 10° NNW 18:55:35 90° ENE 18:57:59 37° SSE
Meteor 2-8 Rocket 4.2 18:50:22 10° S 18:56:25 82° E 18:58:19 47° NNE
Cosmos 1833 Rocket 2.5 18:51:16 10° NNW 18:56:48 77° NE 18:56:48 77° NE
Cosmos 1821 Rocket 3.9 18:51:08 10° N 18:57:15 83° W 19:03:20 10° S
Tiangong 1 4.2 19:00:03 10° W 19:00:36 14° WNW 19:00:36 14° WNW
BREEZE M DEB (TANK) 4.2 19:00:21 10° W 19:05:48 27° NW 19:05:51 27° NW
Meteor 1-23 Rocket 4.3 19:01:01 10° SSW 19:06:44 74° W 19:08:04 53° NNW
GEOS 3 Rocket 4.2 19:15:55 46° SSW 19:16:51 52° WSW 19:21:50 10° NW
Cosmos 2056 Rocket 4.1 19:17:05 10° SSW 19:21:38 54° WSW 19:21:38 54° WSW
